Regional Weather Roundup
Issued by NWS

Home | Current Version | Previous Version | Graphics & Text | Print | Product List | Glossary On
Versions: 1 2 3 4 5 6 7 8 9 10 11 12 13 14 15 16 17 18 19 20 21 22 23 24 25 26 27 28 29 30 31 32 33 34 35 36 37 38 39 40 41 42 43 44 45 46 47 48 49 50
000
ASUS43 KOAX 210610
RWRNE

WEATHER ROUNDUP FOR NEBRASKA
NATIONAL WEATHER SERVICE OMAHA NE
100 AM CDT FRI JUL 21 2017

NOTES: SATELLITE DATA IS BEING USED TO AUGMENT CLOUD COVER ABOVE
       12000 FEET.
       "FAIR" INDICATES FEW OR NO CLOUDS BELOW 12,000 FEET WITH NO
       SIGNIFICANT WEATHER AND/OR OBSTRUCTIONS TO VISIBILITY.


NEZ001>004-019>022-054>056-210700-
NEBRASKA PANHANDLE

CITY           SKY/WX    TMP DP  RH WIND       PRES   REMARKS
SCOTTSBLUFF    CLOUDY    74  65  73 CALM      29.98S
6HR MIN TEMP:  74; 6HR MAX TEMP:  89;

ALLIANCE       LGT RAIN  73  66  78 S10       29.97F
6HR MIN TEMP:  72; 6HR MAX TEMP:  90; 6HR PCP:  0.05;

CHADRON        CLOUDY    80  61  52 W7        29.93R
6HR MIN TEMP:  79; 6HR MAX TEMP:  92;

GORDON         FAIR      74  67  78 CALM      29.96S
6HR MIN TEMP:  72; 6HR MAX TEMP:  89;

KIMBALL        PTCLDY    73  55  52 SW3       30.06F
SIDNEY         CLEAR     70  61  73 NW10      30.03F
6HR MIN TEMP:  68; 6HR MAX TEMP:  91;

$$

NEZ057>060-069>072-079>082-210700-
SOUTHWEST NEBRASKA

CITY           SKY/WX    TMP DP  RH WIND       PRES   REMARKS
NORTH PLATTE   CLOUDY    76  75  97 E8        29.88F FOG
6HR MIN TEMP:  76; 6HR MAX TEMP:  92;

IMPERIAL       CLOUDY    74  67  78 CALM      29.91F
6HR MIN TEMP:  74; 6HR MAX TEMP:  99;

LEXINGTON      CLEAR     78  70  74 S8        29.89S
MCCOOK         CLEAR     82  60  47 SW6       29.88S
6HR MIN TEMP:  82; 6HR MAX TEMP: 101;

OGALLALA       MOCLDY    76  68  75 N8        29.93F
$$

NEZ005>010-023>029-035>040-094-210700-
NORTH CENTRAL NEBRASKA

CITY           SKY/WX    TMP DP  RH WIND       PRES   REMARKS
VALENTINE      PTCLDY    79  69  71 E8        29.91R
6HR MIN TEMP:  79; 6HR MAX TEMP:  95;

AINSWORTH      PTCLDY    75  74  99 CALM      29.91S
BROKEN BOW     CLEAR     76  74  93 SE5       29.88F
6HR MIN TEMP:  76; 6HR MAX TEMP:  89;

O`NEILL        CLOUDY    78  74  89 E3        29.88S
ORD            MOCLDY    77  72  84 E5        29.85F
6HR MIN TEMP:  74; 6HR MAX TEMP:  91;

THEDFORD       MOCLDY    76  72  86 CALM      29.91F
$$

NEZ041-046>049-061>064-073>077-083>087-210700-
SOUTH CENTRAL NEBRASKA

CITY           SKY/WX    TMP DP  RH WIND       PRES   REMARKS
GRAND ISLAND   CLEAR     79  71  76 S12       29.88F
6HR MIN TEMP:  79; 6HR MAX TEMP:  89;

AURORA         CLEAR     80  69  68 S13       29.89S
HASTINGS       CLEAR     80  66  62 S9        29.91S
6HR MIN TEMP:  80; 6HR MAX TEMP:  91;

HEBRON         CLEAR     84  67  56 S12       29.90S
HOLDREGE       CLEAR     78  62  57 S9        29.90S
KEARNEY        CLEAR     80  65  59 S13       29.89F
YORK           CLEAR     81  68  65 S12       29.89S
$$

NEZ011>018-030>034-042>045-210700-
NORTHEAST NEBRASKA

CITY           SKY/WX    TMP DP  RH WIND       PRES   REMARKS
NORFOLK        CLOUDY    76  70  82 SE8       29.88S
6HR MIN TEMP:  76; 6HR MAX TEMP:  88;

ALBION         CLEAR     78  75  91 SE5       29.88S
BLAIR          CLOUDY    86  75  69 S13G20    29.90F HX  95
COLUMBUS       CLEAR     83  72  69 SE9       29.88S
FREMONT        CLOUDY    85  73  67 SE10      29.88F HX  91
TEKAMAH        CLOUDY    79  73  82 SE3       29.88F
6HR MIN TEMP:  77; 6HR MAX TEMP:  86;

WAYNE          CLOUDY    76  75  96 CALM      29.89R
$$

NEZ050>053-065>068-078-088>093-210700-
SOUTHEAST NEBRASKA

CITY           SKY/WX    TMP DP  RH WIND       PRES   REMARKS
LINCOLN        CLEAR     82  69  64 S10       29.89S
6HR MIN TEMP:  80; 6HR MAX TEMP:  94;

OMAHA EPPLEY   CLOUDY    88  75  65 S10       29.88F HX  97
6HR MIN TEMP:  86; 6HR MAX TEMP:  94;

BEATRICE       CLEAR     85  69  58 S12G17    29.91S
FALLS CITY     CLEAR     84  73  69 S9        29.91S HX  90
6HR MIN TEMP:  82; 6HR MAX TEMP:  91;

NEBRASKA CITY  CLEAR     82  75  80 S13       29.91F
PLATTSMOUTH    CLOUDY    83  72  70 S13       29.90F
$$

NEZ044-045-051>053-067-210700-
OMAHA AREA

CITY           SKY/WX    TMP DP  RH WIND       PRES   REMARKS
OMAHA EPPLEY   CLOUDY    88  75  65 S10       29.88F HX  97
6HR MIN TEMP:  86; 6HR MAX TEMP:  94;

BLAIR          CLOUDY    86  75  69 S13G20    29.90F HX  95
FREMONT        CLOUDY    85  73  67 SE10      29.88F HX  91
MILLARD        CLOUDY    87  75  68 S7        29.89F HX  96
OFFUTT AFB     PTCLDY    84  75  72 SE8       29.89S HX  92
PLATTSMOUTH    CLOUDY    83  72  70 S13       29.90F
WAHOO          FAIR      79  73  81 SE8       29.88F
$$




USA.gov is the U.S. government's official web portal to all federal, state and local government web resources and services.